Terug naar catalogus

SL-14 R/B

ActiefPO
NORAD 16882·ROCKET BODY·🇷🇺 Russia

Gelanceerd Jul 28, 1986 vanaf Plesetsk Cosmodrome

Loading…

Volgende Passages (komende 24 uur)

TLE

VersSource: Space-Track

Epoch: Sep 14, 2026, 14:26 UTC

1 16882U 86055B   26257.60140691  .00000277  00000-0  28988-4 0  9993
2 16882  82.5204 309.0752 0020295  68.9907  90.9779 14.85776180147416

Volg SL-14 R/B in realtime met AllMySat

Download on the App Store